[[{"header":{"parameterUnit":"m.s-1","parameterCategory":2,"la1":30.2991,"la2":30.254,"lo1":-89.0895,"lo2":-89.0444,"dy":0.0017,"dx":0.0017,"nx":28,"ny":28,"refTime":"2025-07-21T21:00:00:Z","depth":"0","parameterNumber":2,"parameterNumberName":"U-component_of_CURRENTS"},"data":[0,0,0,0,0,0,0,0,0,0,0,0,0,0,0,0,0,0,0,0,0,0,0,0,0,0,0,0,0,0,0,0,0,0,0,0,0,0,0,0,0,0,0,0,0,0,0,0,0,0,0,0,0,0,0,0,0,0,-0.3089,-0.3089,0,-0.3072,-0.3072,-0.3071,-0.3031,-0.303,-0.3029,-0.3029,-0.2918,-0.2916,-0.2914,0,0,0,0,0,0,0,0,0,0,0,0,0,-0.2942,-0.2946,-0.3089,-0.3089,-0.3089,-0.3072,-0.3072,-0.3071,-0.3031,-0.303,-0.3029,-0.3028,-0.2919,-0.2916,-0.2914,0,0,0,0,0,0,0,0,0,0,0,0,0,-0.2972,-0.2947,-0.3089,-0.3069,-0.3067,-0.3072,-0.3072,-0.3071,-0.3031,-0.303,-0.3029,-0.3028,-0.292,-0.2917,-0.2913,-0.2911,0,0,-0.2903,-0.2901,0,0,0,0,0,0,0,0,-0.2971,-0.2977,-0.3072,-0.307,-0.3068,-0.3054,-0.2979,-0.3014,-0.3031,-0.3042,-0.3029,-0.3028,-0.2957,-0.2951,-0.2948,-0.2906,-0.2902,-0.2902,-0.29,-0.2899,-0.2898,0,0,0,0,0,0,0,-0.2969,-0.2977,-0.308,-0.3072,-0.307,-0.301,-0.3015,-0.2985,-0.3002,-0.3041,-0.3039,-0.3041,-0.2955,-0.2952,-0.2945,-0.29,-0.2902,-0.2899,-0.2897,-0.2896,-0.2784,-0.2783,0,0,0,0,0,0,-0.2985,-0.2977,-0.3081,-0.308,-0.3018,-0.3015,-0.3019,-0.3058,-0.3004,-0.2997,-0.3041,-0.3039,-0.2958,-0.2949,-0.2941,-0.2897,-0.2899,-0.2895,-0.2893,-0.2785,-0.2784,-0.2783,0,0,0,0,0,0,-0.2982,-0.2996,-0.3082,-0.3026,-0.3033,-0.302,-0.3062,-0.3058,-0.3051,-0.3006,-0.2996,-0.3038,-0.2957,-0.2946,-0.2906,-0.2894,-0.2894,-0.2891,-0.2786,-0.2785,-0.2783,-0.2834,0,0,0,0,0,0,-0.2979,-0.2996,-0.3022,-0.3029,-0.3038,-0.3087,-0.3063,-0.3059,-0.3055,-0.3051,-0.3,-0.2989,-0.2955,-0.2911,-0.2902,-0.2889,-0.2888,-0.2787,-0.2785,-0.2784,-0.2833,-0.2834,-0.2835,0,0,0,0,0,-0.2974,-0.3006,-0.3024,-0.3036,-0.3078,-0.3087,-0.3086,-0.3068,-0.3056,-0.3057,-0.3016,-0.2991,-0.2894,-0.2908,-0.2898,-0.2883,-0.2788,-0.2786,-0.2784,-0.2833,-0.2834,-0.2835,0,0,0,0,0,0,-0.2939,-0.3006,-0.3025,-0.3074,-0.3085,-0.3081,-0.3077,-0.3073,-0.3045,-0.3031,-0.2989,-0.2975,-0.2935,-0.2901,-0.2918,-0.2843,-0.2833,-0.2829,-0.2873,-0.2874,-0.2875,-0.2853,-0.2885,0,0,0,0,0,-0.2953,-0.3003,-0.3041,-0.3074,-0.3086,-0.3086,-0.3085,-0.3078,-0.3059,-0.3046,-0.3012,-0.2963,-0.2921,-0.2892,-0.2854,-0.2819,-0.2786,-0.2797,-0.2799,-0.28,-0.2773,-0.2737,-0.2733,-0.2776,-0.2776,-0.2776,0,0,-0.2939,-0.2987,-0.3008,-0.307,-0.3075,-0.3084,-0.3081,-0.3083,-0.3072,-0.3037,-0.3003,-0.2973,-0.2914,-0.2873,-0.285,-0.2841,-0.2772,-0.2797,-0.2799,-0.277,-0.2735,-0.273,-0.2727,-0.2775,-0.2775,-0.2776,0,0,-0.2911,-0.2991,-0.3005,-0.3035,-0.3062,-0.3075,-0.3081,-0.3086,-0.3072,-0.305,-0.3013,-0.2968,-0.2919,-0.2865,-0.2832,-0.2811,-0.2786,-0.2809,-0.2789,-0.2756,-0.2753,-0.2749,-0.2716,-0.2709,-0.2802,-0.2802,-0.2802,0,-0.288,-0.2927,-0.3,-0.302,-0.3034,-0.3074,-0.3068,-0.3073,-0.3058,-0.3033,-0.3039,-0.2946,-0.2904,-0.2831,-0.282,-0.2811,-0.2797,-0.2797,-0.276,-0.2755,-0.275,-0.2717,-0.2709,-0.2804,-0.2804,-0.2804,-0.2803,0,-0.286,-0.2897,-0.2906,-0.2963,-0.2994,-0.2998,-0.3035,-0.304,-0.3039,-0.3027,-0.2974,-0.293,-0.2867,-0.2854,-0.2827,-0.2768,-0.2772,-0.2778,-0.2764,-0.2749,-0.2715,-0.2705,-0.2807,-0.2806,-0.2806,-0.2805,0,0,-0.2755,-0.2867,-0.2862,-0.2889,-0.2965,-0.2985,-0.2992,-0.2991,-0.2985,-0.2968,-0.2936,-0.2859,-0.2849,-0.2808,-0.2782,-0.2742,-0.2705,-0.2748,-0.2745,-0.2726,-0.2641,-0.2436,-0.2406,-0.2725,-0.2723,-0.2721,-0.2637,0,-0.2689,-0.2722,-0.2797,-0.2813,-0.2831,-0.2906,-0.292,-0.2937,-0.2946,-0.2938,-0.2888,-0.2856,-0.2832,-0.2815,-0.2771,-0.2726,-0.2679,-0.2726,-0.2645,-0.2641,-0.247,-0.2386,-0.2093,-0.1973,-0.2627,-0.2625,-0.2624,0,-0.2606,-0.2657,-0.2664,-0.276,-0.2775,-0.2799,-0.2846,-0.287,-0.2883,-0.2885,-0.2853,-0.2845,-0.2773,-0.2779,-0.2669,-0.2712,-0.2664,-0.263,-0.2627,-0.24,-0.2414,-0.2087,-0.1931,-0.1819,-0.2609,-0.261,-0.2611,0,-0.2477,-0.2548,-0.2559,-0.2593,-0.271,-0.2719,-0.2779,-0.2825,-0.2847,-0.2857,-0.2861,-0.2806,-0.2773,-0.2714,-0.2622,-0.2663,-0.251,-0.2562,-0.2326,-0.2314,-0.2018,-0.1979,-0.1738,-0.2469,-0.2469,-0.247,-0.247,0,-0.2371,-0.2376,-0.2505,-0.2518,-0.2555,-0.2658,-0.2689,-0.2739,-0.2793,-0.2796,-0.2827,-0.2784,-0.2758,-0.2675,-0.2614,-0.2399,-0.2494,-0.2273,-0.2251,-0.2026,-0.1991,-0.1844,-0.1964,-0.2466,-0.2467,-0.2468,-0.2468,0,-0.2226,-0.2295,-0.2336,-0.2458,-0.2496,-0.2533,-0.267,-0.2695,-0.2753,-0.276,-0.2763,-0.2756,-0.2619,-0.2558,-0.2442,-0.2342,-0.2121,-0.2108,-0.1835,-0.1778,-0.143,-0.1568,-0.1504,-0.1489,-0.1828,-0.1822,-0.1817,0,-0.2151,-0.2154,-0.2296,-0.2341,-0.2397,-0.248,-0.2538,-0.2651,-0.2682,-0.2703,-0.2683,-0.2583,-0.2417,-0.2165,-0.1962,-0.176,-0.1877,-0.1432,-0.1419,-0.1302,-0.1444,-0.1664,-0.1677,-0.1077,-0.1066,-0.1057,-0.105,0,-0.2034,-0.2091,-0.2157,-0.2254,-0.2321,-0.2404,-0.2487,-0.2499,-0.2595,-0.256,-0.2446,-0.2303,-0.2007,-0.1562,-0.1312,-0.1229,-0.1355,-0.1242,-0.1182,-0.0849,-0.1014,-0.1021,-0.1284,-0.0972,-0.098,-0.0986,-0.099,-0.0993,-0.1956,-0.1991,-0.2087,-0.2167,-0.2246,-0.2283,-0.2246,-0.229,-0.2258,-0.2074,-0.21,-0.1697,-0.1186,-0.0724,-0.0697,-0.0387,-0.0779,-0.0281,-0.0468,-0.0707,-0.0635,-0.0707,-0.0335,-0.0339,-0.0343,-0.0346,-0.0348,0,-0.1854,-0.1917,-0.1996,-0.2069,-0.2071,-0.2157,-0.2169,-0.2038,-0.1859,-0.1642,-0.1402,-0.0683,-0.0141,0.0123,0.056,0.0523,0.0248,0.0369,0.0153,0.009,0.0079,0.0188,0.0768,0.0768,0.0768,0.0768,0.0767,0.0767,-0.1813,-0.1839,-0.189,-0.1859,-0.1884,-0.1753,-0.1685,-0.1492,-0.1264,-0.071,-0.0237,0.0049,0.0484,0.1006,0.1221,0.1075,0.0734,0.0619,0.0348,0.0424,0.0349,0.0277,0.0368,0.0976,0.0975,0.0521,0.0517,0.0514]},{"header":{"parameterUnit":"m.s-1","parameterCategory":2,"la1":30.2991,"la2":30.254,"lo1":-89.0895,"lo2":-89.0444,"dy":0.0017,"dx":0.0017,"nx":28,"ny":28,"refTime":"2025-07-21T21:00:00:Z","depth":"0","parameterNumber":3,"parameterNumberName":"V-component_of_CURRENTS"},"data":[0,0,0,0,0,0,0,0,0,0,0,0,0,0,0,0,0,0,0,0,0,0,0,0,0,0,0,0,0,0,0,0,0,0,0,0,0,0,0,0,0,0,0,0,0,0,0,0,0,0,0,0,0,0,0,0,0,0,-0.1559,-0.1557,0,-0.1411,-0.1409,-0.1408,-0.1325,-0.1325,-0.1324,-0.1324,-0.1148,-0.1144,-0.114,0,0,0,0,0,0,0,0,0,0,0,0,0,-0.1526,-0.1528,-0.1559,-0.1557,-0.1555,-0.1411,-0.1409,-0.1407,-0.1325,-0.1325,-0.1324,-0.1324,-0.115,-0.1145,-0.1139,0,0,0,0,0,0,0,0,0,0,0,0,0,-0.1475,-0.1529,-0.1559,-0.1497,-0.149,-0.1412,-0.1409,-0.1407,-0.1325,-0.1325,-0.1324,-0.1324,-0.1152,-0.1145,-0.1139,-0.1103,0,0,-0.1118,-0.1115,0,0,0,0,0,0,0,0,-0.1479,-0.1477,-0.1508,-0.1501,-0.1493,-0.1387,-0.1333,-0.1304,-0.1325,-0.1387,-0.1324,-0.1324,-0.1226,-0.1213,-0.1186,-0.1095,-0.1087,-0.1117,-0.1113,-0.111,-0.1108,0,0,0,0,0,0,0,-0.1483,-0.1481,-0.15,-0.1506,-0.1497,-0.1393,-0.1388,-0.1326,-0.1309,-0.1382,-0.1375,-0.136,-0.1222,-0.1192,-0.1181,-0.1085,-0.1118,-0.1112,-0.1107,-0.1105,-0.0926,-0.0926,0,0,0,0,0,0,-0.1516,-0.1486,-0.1504,-0.1495,-0.1486,-0.1395,-0.1389,-0.1421,-0.131,-0.1293,-0.136,-0.1357,-0.1204,-0.1189,-0.1174,-0.114,-0.111,-0.1104,-0.11,-0.0927,-0.0926,-0.0925,0,0,0,0,0,0,-0.1517,-0.1521,-0.151,-0.1484,-0.1476,-0.1398,-0.1433,-0.1418,-0.1388,-0.1295,-0.1277,-0.1346,-0.1203,-0.1184,-0.1115,-0.1132,-0.1101,-0.1095,-0.0928,-0.0927,-0.0926,-0.1063,0,0,0,0,0,0,-0.1517,-0.1523,-0.1545,-0.1489,-0.1479,-0.1479,-0.1432,-0.1415,-0.1379,-0.1373,-0.1276,-0.1259,-0.1201,-0.1125,-0.1108,-0.1123,-0.109,-0.0929,-0.0927,-0.0926,-0.1059,-0.1067,-0.1073,0,0,0,0,0,-0.1517,-0.1551,-0.1549,-0.1549,-0.1518,-0.148,-0.1465,-0.1404,-0.1379,-0.1375,-0.1299,-0.1262,-0.1104,-0.1119,-0.1099,-0.1112,-0.0929,-0.0928,-0.0926,-0.1056,-0.1065,-0.1073,0,0,0,0,0,0,-0.154,-0.1544,-0.154,-0.1573,-0.1538,-0.1466,-0.1451,-0.1411,-0.1347,-0.1336,-0.1251,-0.1229,-0.1174,-0.1115,-0.1133,-0.1052,-0.1011,-0.1006,-0.1117,-0.1125,-0.1131,-0.1193,-0.1084,0,0,0,0,0,-0.1562,-0.1592,-0.1568,-0.1588,-0.1585,-0.1521,-0.1493,-0.1455,-0.1393,-0.1365,-0.1297,-0.1218,-0.115,-0.1118,-0.1046,-0.1004,-0.0961,-0.0996,-0.1003,-0.101,-0.1042,-0.0997,-0.1004,-0.092,-0.092,-0.092,0,0,-0.157,-0.1576,-0.159,-0.1593,-0.1565,-0.1562,-0.1504,-0.1474,-0.1458,-0.1355,-0.1312,-0.1237,-0.114,-0.1093,-0.1064,-0.105,-0.1002,-0.1008,-0.1015,-0.1044,-0.0996,-0.1005,-0.1013,-0.0919,-0.0919,-0.092,0,0,-0.1585,-0.1622,-0.1642,-0.1633,-0.1604,-0.158,-0.1581,-0.1523,-0.149,-0.1435,-0.1358,-0.1305,-0.1192,-0.1145,-0.1101,-0.1101,-0.1036,-0.1064,-0.1159,-0.1114,-0.1122,-0.1129,-0.1064,-0.1063,-0.1075,-0.1075,-0.1075,0,-0.1587,-0.1632,-0.1632,-0.1644,-0.1653,-0.1603,-0.1622,-0.1578,-0.1495,-0.1483,-0.1437,-0.1304,-0.1225,-0.1187,-0.1186,-0.1125,-0.1077,-0.1144,-0.113,-0.1135,-0.114,-0.1071,-0.1069,-0.1082,-0.1081,-0.108,-0.108,0,-0.1621,-0.1647,-0.166,-0.1688,-0.1696,-0.1701,-0.1675,-0.1669,-0.163,-0.1573,-0.1522,-0.1416,-0.1353,-0.1308,-0.1246,-0.124,-0.1186,-0.1144,-0.1126,-0.1158,-0.1081,-0.1077,-0.1091,-0.1088,-0.1087,-0.1085,0,0,-0.1647,-0.1681,-0.1684,-0.171,-0.1731,-0.174,-0.1762,-0.1764,-0.1765,-0.1685,-0.1679,-0.1574,-0.1526,-0.1475,-0.1393,-0.1356,-0.1332,-0.1279,-0.1273,-0.1246,-0.1218,-0.1057,-0.1036,-0.129,-0.129,-0.1291,-0.1145,0,-0.167,-0.172,-0.1738,-0.1786,-0.182,-0.1836,-0.1874,-0.1867,-0.1818,-0.1791,-0.1708,-0.1642,-0.1582,-0.1546,-0.1514,-0.1358,-0.133,-0.1374,-0.1164,-0.1158,-0.1038,-0.1029,-0.0896,-0.0744,-0.114,-0.1139,-0.1139,0,-0.1704,-0.1736,-0.1805,-0.1873,-0.1897,-0.1925,-0.2008,-0.2015,-0.1982,-0.1941,-0.1894,-0.1796,-0.1733,-0.1665,-0.1503,-0.1531,-0.1412,-0.1299,-0.1289,-0.11,-0.099,-0.0776,-0.0721,-0.0676,-0.1132,-0.1132,-0.1133,0,-0.1746,-0.1786,-0.1858,-0.1878,-0.1949,-0.2001,-0.2046,-0.206,-0.2059,-0.2014,-0.198,-0.1904,-0.1818,-0.1706,-0.1477,-0.1493,-0.1266,-0.125,-0.1005,-0.0991,-0.0817,-0.0786,-0.0724,-0.117,-0.117,-0.1171,-0.1171,0,-0.1786,-0.1824,-0.1874,-0.1913,-0.2003,-0.2046,-0.2117,-0.2142,-0.2136,-0.2093,-0.2048,-0.1959,-0.1821,-0.1657,-0.1504,-0.1215,-0.1288,-0.1025,-0.0947,-0.0852,-0.0827,-0.0729,-0.0755,-0.1165,-0.1166,-0.1168,-0.1169,0,-0.1807,-0.1843,-0.1918,-0.2002,-0.2021,-0.2093,-0.2154,-0.2182,-0.2179,-0.2117,-0.2101,-0.1979,-0.1747,-0.1578,-0.1328,-0.1193,-0.0872,-0.0854,-0.0737,-0.0648,-0.0388,-0.0425,-0.0262,-0.0162,-0.0582,-0.0577,-0.0573,0,-0.1816,-0.1858,-0.1973,-0.2019,-0.2048,-0.2126,-0.2181,-0.2207,-0.2182,-0.2076,-0.2021,-0.1821,-0.1574,-0.1181,-0.0936,-0.0647,-0.0643,-0.0385,-0.0404,-0.0355,-0.0341,-0.0374,-0.0307,-0.0218,-0.0212,-0.0206,-0.0202,0,-0.182,-0.1879,-0.1955,-0.2053,-0.2111,-0.2154,-0.2181,-0.2145,-0.2119,-0.1985,-0.1732,-0.1523,-0.1182,-0.0777,-0.0466,-0.0294,-0.0305,-0.0262,-0.0249,-0.0087,-0.0082,0.0048,-0.0335,-0.0154,-0.0159,-0.0162,-0.0165,-0.0167,-0.182,-0.1884,-0.1988,-0.207,-0.2133,-0.2105,-0.2031,-0.1961,-0.1804,-0.1454,-0.1391,-0.0902,-0.0632,-0.0138,-0.0021,0.0228,0.011,0.0303,0.0246,0.0203,0.0313,0.0049,0.0342,0.034,0.0339,0.0337,0.0336,0,-0.1773,-0.186,-0.197,-0.2037,-0.204,-0.2078,-0.197,-0.178,-0.1435,-0.1078,-0.071,-0.0069,0.0216,0.0384,0.0595,0.0695,0.0702,0.0715,0.0651,0.0692,0.0448,0.0478,0.086,0.086,0.086,0.086,0.086,0.086,-0.1751,-0.1833,-0.1903,-0.1893,-0.1907,-0.1738,-0.1599,-0.1287,-0.0954,-0.0203,0.0358,0.0716,0.0914,0.0762,0.0843,0.0892,0.0948,0.0984,0.0952,0.0708,0.0662,0.0618,0.064,0.105,0.105,0.1266,0.1267,0.1268]}],[{"header":{"parameterUnit":"m.s-1","parameterCategory":2,"la1":30.2991,"la2":30.254,"lo1":-89.0895,"lo2":-89.0444,"dy":0.0017,"dx":0.0017,"nx":28,"ny":28,"refTime":"2025-07-21T21:00:00:Z","depth":"2","parameterNumber":2,"parameterNumberName":"U-component_of_CURRENTS"},"data":[0,0,0,0,0,0,0,0,0,0,0,0,0,0,0,0,0,0,0,0,0,0,0,0,0,0,0,0,0,0,0,0,0,0,0,0,0,0,0,0,0,0,0,0,0,0,0,0,0,0,0,0,0,0,0,0,0,0,-0.1865,-0.1866,0,-0.1887,-0.1886,-0.1885,-0.1894,-0.1896,-0.1897,-0.1898,-0.2053,-0.2055,-0.2058,0,0,0,0,0,0,0,0,0,0,0,0,0,-0.1858,-0.1856,-0.1865,-0.1867,-0.1868,-0.1887,-0.1886,-0.1885,-0.1894,-0.1896,-0.1897,-0.1899,-0.2052,-0.2055,-0.2058,0,0,0,0,0,0,0,0,0,0,0,0,0,-0.1854,-0.1856,-0.1865,-0.1886,-0.189,-0.1887,-0.1886,-0.1884,-0.1894,-0.1896,-0.1898,-0.19,-0.2051,-0.2055,-0.2059,-0.2045,0,0,-0.2072,-0.2074,0,0,0,0,0,0,0,0,-0.1854,-0.1852,-0.1881,-0.1885,-0.1889,-0.1903,-0.1941,-0.195,-0.1893,-0.1876,-0.1898,-0.1901,-0.2024,-0.203,-0.2006,-0.2052,-0.2059,-0.2072,-0.2075,-0.2077,-0.2078,0,0,0,0,0,0,0,-0.1854,-0.1852,-0.1858,-0.1883,-0.1888,-0.1906,-0.1905,-0.1941,-0.1929,-0.1878,-0.1882,-0.1908,-0.2025,-0.2002,-0.2011,-0.2061,-0.2072,-0.2076,-0.2079,-0.208,-0.2074,-0.2071,0,0,0,0,0,0,-0.1878,-0.1851,-0.1858,-0.186,-0.1893,-0.1905,-0.1904,-0.1884,-0.1926,-0.1937,-0.1906,-0.1909,-0.1993,-0.2005,-0.2016,-0.2048,-0.2077,-0.2081,-0.2083,-0.2077,-0.2073,-0.2071,0,0,0,0,0,0,-0.1877,-0.1876,-0.1857,-0.1872,-0.1873,-0.1904,-0.1881,-0.1884,-0.1891,-0.1949,-0.196,-0.1917,-0.1995,-0.201,-0.2045,-0.2054,-0.2083,-0.2087,-0.208,-0.2076,-0.2072,-0.2084,0,0,0,0,0,0,-0.1875,-0.1874,-0.1867,-0.1871,-0.1873,-0.1848,-0.1881,-0.1883,-0.191,-0.1913,-0.1961,-0.1975,-0.1998,-0.2037,-0.2049,-0.206,-0.209,-0.2084,-0.2078,-0.2073,-0.2087,-0.2081,-0.2076,0,0,0,0,0,-0.1874,-0.1864,-0.1865,-0.1868,-0.1861,-0.1848,-0.1847,-0.1869,-0.1909,-0.1886,-0.1925,-0.1975,-0.2012,-0.204,-0.2053,-0.2066,-0.2086,-0.208,-0.2074,-0.209,-0.2082,-0.2076,0,0,0,0,0,0,-0.1861,-0.1865,-0.1867,-0.1858,-0.1852,-0.1856,-0.1857,-0.188,-0.1887,-0.1906,-0.1961,-0.1975,-0.1997,-0.2013,-0.2043,-0.2034,-0.2049,-0.2045,-0.2056,-0.205,-0.2044,-0.2062,-0.2094,0,0,0,0,0,-0.1855,-0.1858,-0.1845,-0.1851,-0.1834,-0.1847,-0.1854,-0.1863,-0.1881,-0.1886,-0.1925,-0.1953,-0.1971,-0.2002,-0.2004,-0.2027,-0.2038,-0.2028,-0.2022,-0.2018,-0.2032,-0.2022,-0.2019,-0.205,-0.205,-0.205,0,0,-0.1858,-0.1871,-0.187,-0.1852,-0.1846,-0.1829,-0.185,-0.1853,-0.1869,-0.1907,-0.1935,-0.1941,-0.1965,-0.197,-0.1982,-0.2001,-0.2011,-0.201,-0.2008,-0.2024,-0.2016,-0.2014,-0.2012,-0.2046,-0.2047,-0.2048,0,0,-0.1867,-0.1858,-0.1845,-0.184,-0.1844,-0.1837,-0.1844,-0.1835,-0.1847,-0.1863,-0.1889,-0.19,-0.1934,-0.1944,-0.1962,-0.1925,-0.1971,-0.1918,-0.1934,-0.1923,-0.1923,-0.1922,-0.1936,-0.1937,-0.1929,-0.1929,-0.1929,0,-0.1871,-0.1857,-0.1842,-0.1834,-0.1851,-0.1845,-0.1833,-0.1832,-0.185,-0.1865,-0.1872,-0.1896,-0.1922,-0.1949,-0.1927,-0.1923,-0.1927,-0.1975,-0.1923,-0.1922,-0.1922,-0.1936,-0.1937,-0.1929,-0.1929,-0.1929,-0.1929,0,-0.1848,-0.1857,-0.1853,-0.1839,-0.1837,-0.1833,-0.183,-0.1829,-0.1853,-0.1861,-0.1876,-0.1881,-0.1899,-0.1897,-0.1918,-0.1919,-0.1927,-0.1913,-0.1959,-0.1921,-0.1936,-0.1937,-0.1928,-0.1928,-0.1929,-0.1929,0,0,-0.1807,-0.1827,-0.1833,-0.1842,-0.1846,-0.1836,-0.1856,-0.1851,-0.1877,-0.1871,-0.1901,-0.1906,-0.1902,-0.1915,-0.1925,-0.1928,-0.1929,-0.1927,-0.1927,-0.1975,-0.1927,-0.1747,-0.1731,-0.1912,-0.1912,-0.1912,-0.1943,0,-0.1792,-0.1791,-0.1813,-0.183,-0.1812,-0.1839,-0.1859,-0.1871,-0.1884,-0.1898,-0.1905,-0.1918,-0.1913,-0.1922,-0.192,-0.194,-0.193,-0.1923,-0.1927,-0.1928,-0.1801,-0.1724,-0.1635,-0.1637,-0.1944,-0.1944,-0.1944,0,-0.1748,-0.1763,-0.1762,-0.1826,-0.1818,-0.1831,-0.1862,-0.1884,-0.1906,-0.192,-0.193,-0.1932,-0.1958,-0.1931,-0.1953,-0.1953,-0.1931,-0.1933,-0.1933,-0.1766,-0.1747,-0.1719,-0.1628,-0.1946,-0.1946,-0.1946,-0.1945,0,-0.1701,-0.1741,-0.1749,-0.1764,-0.1802,-0.1824,-0.1849,-0.1879,-0.1896,-0.1931,-0.1961,-0.1962,-0.1988,-0.1965,-0.1965,-0.1963,-0.1972,-0.1967,-0.1782,-0.1772,-0.1694,-0.1674,-0.1933,-0.1933,-0.1933,-0.1933,-0.1933,0,-0.1677,-0.1689,-0.1728,-0.1727,-0.1743,-0.1793,-0.1821,-0.1849,-0.1887,-0.1913,-0.1966,-0.1983,-0.1995,-0.2,-0.1974,-0.1879,-0.1973,-0.1769,-0.1749,-0.1688,-0.1668,-0.1934,-0.1934,-0.1934,-0.1934,-0.1934,-0.1933,0,-0.1625,-0.1651,-0.1657,-0.1701,-0.1714,-0.1721,-0.1787,-0.1804,-0.1881,-0.1923,-0.1937,-0.2001,-0.1989,-0.1983,-0.1955,-0.1884,-0.1817,-0.1747,-0.1679,-0.1644,-0.1632,-0.1631,-0.1551,-0.1545,-0.1539,-0.1534,-0.1531,0,-0.1596,-0.1587,-0.1616,-0.1612,-0.1632,-0.1665,-0.1684,-0.1759,-0.1794,-0.1922,-0.1937,-0.1951,-0.187,-0.1783,-0.1673,-0.1552,-0.1658,-0.1419,-0.1352,-0.1594,-0.1584,-0.1593,-0.16,-0.1289,-0.1284,-0.1279,-0.1276,0,-0.1532,-0.1539,-0.1543,-0.153,-0.1543,-0.1566,-0.162,-0.1636,-0.175,-0.1782,-0.1792,-0.1721,-0.1635,-0.1422,-0.1282,-0.1223,-0.1424,-0.1311,-0.1605,-0.1353,-0.1335,-0.1329,-0.1348,-0.1235,-0.1239,-0.1242,-0.1244,-0.1246,-0.1481,-0.1464,-0.1459,-0.1445,-0.1456,-0.1456,-0.144,-0.1491,-0.1487,-0.147,-0.1519,-0.1363,-0.1375,-0.0998,-0.094,-0.0929,-0.1013,-0.1019,-0.104,-0.1064,-0.098,-0.0947,-0.0764,-0.0766,-0.0767,-0.0768,-0.0768,0,-0.1416,-0.1398,-0.1376,-0.1348,-0.131,-0.1359,-0.1379,-0.1316,-0.1255,-0.1158,-0.1041,-0.0883,-0.0714,-0.0739,-0.0613,-0.057,-0.0642,-0.0586,-0.0717,-0.0756,-0.0791,-0.0701,-0.0407,-0.0406,-0.0405,-0.0403,0,0,-0.1377,-0.1326,-0.1308,-0.1204,-0.119,-0.108,-0.1064,-0.0975,-0.0858,-0.0638,-0.0509,-0.0462,-0.0575,-0.0432,-0.045,-0.0376,-0.0539,-0.0352,-0.0643,-0.0825,-0.0857,-0.1046,-0.0947,0,0,0,0,0]},{"header":{"parameterUnit":"m.s-1","parameterCategory":2,"la1":30.2991,"la2":30.254,"lo1":-89.0895,"lo2":-89.0444,"dy":0.0017,"dx":0.0017,"nx":28,"ny":28,"refTime":"2025-07-21T21:00:00:Z","depth":"2","parameterNumber":3,"parameterNumberName":"V-component_of_CURRENTS"},"data":[0,0,0,0,0,0,0,0,0,0,0,0,0,0,0,0,0,0,0,0,0,0,0,0,0,0,0,0,0,0,0,0,0,0,0,0,0,0,0,0,0,0,0,0,0,0,0,0,0,0,0,0,0,0,0,0,0,0,-0.017,-0.017,0,-0.0129,-0.0129,-0.0128,-0.0089,-0.0088,-0.0087,-0.0087,0.0049,0.0052,0.0055,0,0,0,0,0,0,0,0,0,0,0,0,0,-0.0258,-0.0257,-0.017,-0.0169,-0.0169,-0.0129,-0.0129,-0.0128,-0.0089,-0.0088,-0.0087,-0.0086,0.0048,0.0051,0.0055,0,0,0,0,0,0,0,0,0,0,0,0,0,-0.0221,-0.0256,-0.017,-0.0143,-0.014,-0.0129,-0.0129,-0.0128,-0.0089,-0.0088,-0.0087,-0.0086,0.0047,0.0051,0.0055,0.0062,0,0,0.0069,0.0071,0,0,0,0,0,0,0,0,-0.0223,-0.0218,-0.0148,-0.0145,-0.0141,-0.0111,-0.011,-0.0059,-0.0089,-0.011,-0.0087,-0.0085,0.0005,0.0012,0.0014,0.0069,0.0074,0.0069,0.0072,0.0074,0.0075,0,0,0,0,0,0,0,-0.0225,-0.0219,-0.0156,-0.0147,-0.0143,-0.0148,-0.0141,-0.0101,-0.0059,-0.0108,-0.0105,-0.0098,0.0007,0.0009,0.0018,0.0076,0.0069,0.0073,0.0076,0.0078,0.0134,0.0133,0,0,0,0,0,0,-0.0225,-0.0222,-0.0157,-0.0154,-0.0178,-0.0146,-0.0139,-0.0124,-0.0061,-0.0051,-0.0099,-0.0096,0.0001,0.0012,0.0023,0.0051,0.0074,0.0078,0.0081,0.0135,0.0134,0.0133,0,0,0,0,0,0,-0.0227,-0.022,-0.0159,-0.0186,-0.0178,-0.0145,-0.0129,-0.0123,-0.0111,-0.0055,-0.0043,-0.0091,0.0002,0.0017,0.0055,0.0057,0.008,0.0084,0.0137,0.0135,0.0133,0.0099,0,0,0,0,0,0,-0.023,-0.022,-0.0212,-0.0186,-0.0177,-0.0151,-0.0129,-0.0123,-0.0108,-0.0104,-0.0044,-0.0031,0.0004,0.0048,0.0059,0.0063,0.0088,0.0138,0.0136,0.0134,0.0101,0.0096,0.0091,0,0,0,0,0,-0.0233,-0.023,-0.0211,-0.0204,-0.0165,-0.0151,-0.0147,-0.0122,-0.0109,-0.0108,-0.0072,-0.0033,0.0042,0.0051,0.0065,0.007,0.0139,0.0136,0.0134,0.0104,0.0097,0.0092,0,0,0,0,0,0,-0.0267,-0.0225,-0.0204,-0.0187,-0.0167,-0.0143,-0.0141,-0.0123,-0.0097,-0.009,-0.0037,-0.0023,0.0007,0.0036,0.0044,0.0074,0.0093,0.0093,0.0065,0.0059,0.0054,0.0056,0.0091,0,0,0,0,0,-0.0268,-0.0262,-0.0216,-0.0213,-0.0194,-0.0167,-0.0159,-0.0142,-0.0115,-0.0102,-0.0063,-0.0027,0.0003,0.003,0.0057,0.0085,0.0131,0.009,0.0085,0.0081,0.0087,0.015,0.0152,0.0124,0.0124,0.0124,0,0,-0.0279,-0.0263,-0.0254,-0.0221,-0.0202,-0.0186,-0.016,-0.0149,-0.0142,-0.009,-0.0069,-0.0039,0.0003,0.0026,0.0042,0.0056,0.0112,0.0078,0.0074,0.0083,0.0148,0.0151,0.0154,0.0122,0.0122,0.0123,0,0,-0.0312,-0.028,-0.0278,-0.0261,-0.0233,-0.0211,-0.0205,-0.0172,-0.0157,-0.0137,-0.0103,-0.0071,-0.0027,0.0006,0.0028,0.0013,0.0079,0.0013,0.0003,0.0063,0.0067,0.0071,0.0135,0.0145,0.0017,0.0017,0.0017,0,-0.0331,-0.0317,-0.0279,-0.0274,-0.0266,-0.022,-0.0215,-0.0194,-0.016,-0.0146,-0.0135,-0.0071,-0.0035,0.0006,-0.0006,0.0007,0.0051,0.0028,0.006,0.0065,0.007,0.0134,0.0146,0.0015,0.0015,0.0015,0.0015,0,-0.0341,-0.0342,-0.0344,-0.0316,-0.0299,-0.0298,-0.025,-0.0234,-0.021,-0.0184,-0.0146,-0.01,-0.0058,-0.005,-0.0029,0.0014,0.0037,0.0046,0.0083,0.0072,0.0139,0.0152,0.0012,0.0012,0.0013,0.0014,0,0,-0.037,-0.0354,-0.0359,-0.036,-0.0324,-0.0313,-0.0294,-0.0258,-0.0238,-0.0201,-0.0171,-0.0129,-0.0095,-0.007,-0.0036,0.0015,0.0082,0.004,0.0044,0.0116,0.0224,0.0236,0.0251,0.01,0.0102,0.0104,0.0259,0,-0.0397,-0.0409,-0.039,-0.0403,-0.0394,-0.0357,-0.0342,-0.0304,-0.0264,-0.0222,-0.0163,-0.0123,-0.0104,-0.008,-0.0027,0.0057,0.0113,0.004,0.0213,0.0218,0.0242,0.0265,0.0199,0.0331,0.0272,0.0274,0.0275,0,-0.0407,-0.0419,-0.0435,-0.0441,-0.0431,-0.0432,-0.0392,-0.0373,-0.0298,-0.0265,-0.0206,-0.0149,-0.0067,-0.0057,0.0099,0.0053,0.0132,0.0196,0.0204,0.0239,0.0254,0.0331,0.0357,0.0297,0.0295,0.0294,0.0292,0,-0.0434,-0.0455,-0.0476,-0.0476,-0.0458,-0.0466,-0.0453,-0.0391,-0.0364,-0.0286,-0.0245,-0.0145,-0.0076,0.0027,0.0154,0.0137,0.0329,0.0327,0.0415,0.0417,0.0407,0.0405,0.0436,0.0436,0.0436,0.0435,0.0435,0,-0.0468,-0.0489,-0.0498,-0.0506,-0.0532,-0.0501,-0.0503,-0.0469,-0.0403,-0.0351,-0.027,-0.0191,-0.005,0.0075,0.0171,0.0339,0.035,0.0429,0.0463,0.0391,0.0385,0.0387,0.0379,0.0441,0.044,0.0439,0.0438,0,-0.0499,-0.0501,-0.0527,-0.0535,-0.0546,-0.056,-0.0552,-0.0538,-0.0467,-0.0392,-0.0363,-0.0201,-0.0033,0.0101,0.0295,0.0377,0.0518,0.0567,0.0474,0.0493,0.0565,0.0554,0.0703,0.0704,0.0706,0.0707,0.0708,0,-0.0514,-0.0531,-0.0559,-0.0582,-0.06,-0.0621,-0.0629,-0.0581,-0.0551,-0.0385,-0.0343,-0.016,-0.0026,0.0253,0.0439,0.0624,0.0579,0.0642,0.0594,0.0578,0.0595,0.0581,0.0568,0.0572,0.0572,0.0572,0.0572,0,-0.055,-0.0562,-0.0586,-0.0633,-0.0664,-0.0686,-0.0691,-0.0672,-0.0576,-0.0483,-0.0316,-0.0191,0.0102,0.0302,0.0527,0.0614,0.0603,0.0647,0.0679,0.0502,0.0463,0.0477,0.0467,0.0571,0.0571,0.0571,0.0571,0.0571,-0.0579,-0.0614,-0.0646,-0.0696,-0.0725,-0.0742,-0.0746,-0.07,-0.0626,-0.0455,-0.0325,-0.0087,0.0102,0.0466,0.057,0.0676,0.0705,0.0671,0.0668,0.0665,0.061,0.0575,0.0693,0.0694,0.0695,0.0695,0.0696,0,-0.0623,-0.0663,-0.0708,-0.0756,-0.0794,-0.0794,-0.0776,-0.0744,-0.0641,-0.0441,-0.0275,0.0001,0.0217,0.0401,0.0597,0.0696,0.0669,0.0645,0.0566,0.0566,0.0567,0.0502,0.0561,0.0561,0.0561,0.0561,0,0,-0.0648,-0.0703,-0.0734,-0.0814,-0.0843,-0.0854,-0.0837,-0.0743,-0.0601,-0.0399,-0.0177,0.0058,0.029,0.0388,0.0459,0.0507,0.0504,0.0496,0.0591,0.0482,0.0481,0.0566,0.0466,0,0,0,0,0]}],[{"header":{"parameterUnit":"m.s-1","parameterCategory":2,"la1":30.2991,"la2":30.254,"lo1":-89.0895,"lo2":-89.0444,"dy":0.0017,"dx":0.0017,"nx":28,"ny":28,"refTime":"2025-07-21T21:00:00:Z","depth":"4","parameterNumber":2,"parameterNumberName":"U-component_of_CURRENTS"},"data":[0,0,0,0,0,0,0,0,0,0,0,0,0,0,0,0,0,0,0,0,0,0,0,0,0,0,0,0,0,0,0,0,0,0,0,0,0,0,0,0,0,0,0,0,0,0,0,0,0,0,0,0,0,0,0,0,0,0,-0.1254,-0.1255,0,-0.1282,-0.1283,-0.1283,-0.1313,-0.1314,-0.1314,-0.1314,-0.1355,-0.1355,-0.1356,0,0,0,0,0,0,0,0,0,0,0,0,0,-0.1252,-0.1252,-0.1254,-0.1255,-0.1255,-0.1282,-0.1283,-0.1283,-0.1313,-0.1314,-0.1314,-0.1315,-0.1354,-0.1355,-0.1356,0,0,0,0,0,0,0,0,0,0,0,0,0,-0.1264,-0.1251,-0.1254,-0.1273,-0.1275,-0.1282,-0.1283,-0.1283,-0.1313,-0.1314,-0.1314,-0.1315,-0.1354,-0.1355,-0.1356,-0.1349,0,0,-0.1359,-0.136,0,0,0,0,0,0,0,0,-0.1263,-0.1264,-0.127,-0.1272,-0.1274,-0.1295,-0.1297,-0.1306,-0.1313,-0.1299,-0.1314,-0.1315,-0.1335,-0.1338,-0.1342,-0.1351,-0.1353,-0.1359,-0.136,-0.136,-0.1361,0,0,0,0,0,0,0,-0.1262,-0.1263,-0.1265,-0.127,-0.1273,-0.1289,-0.1291,-0.1299,-0.1313,-0.13,-0.1302,-0.1305,-0.1337,-0.134,-0.1343,-0.1354,-0.1359,-0.136,-0.1361,-0.1361,-0.1428,-0.1429,0,0,0,0,0,0,-0.1256,-0.1262,-0.1264,-0.1266,-0.127,-0.1288,-0.1291,-0.1288,-0.1313,-0.1317,-0.1304,-0.1306,-0.1338,-0.1342,-0.1344,-0.1399,-0.136,-0.1361,-0.1362,-0.1427,-0.1428,-0.143,0,0,0,0,0,0,-0.1256,-0.1256,-0.1263,-0.1265,-0.1267,-0.1288,-0.1284,-0.1288,-0.1314,-0.1316,-0.1321,-0.1329,-0.1339,-0.1343,-0.1369,-0.1399,-0.1362,-0.1363,-0.1426,-0.1427,-0.1429,-0.147,0,0,0,0,0,0,-0.1256,-0.1256,-0.1262,-0.1264,-0.1267,-0.128,-0.1283,-0.1288,-0.1313,-0.1316,-0.1338,-0.1341,-0.134,-0.1367,-0.137,-0.14,-0.1363,-0.1424,-0.1426,-0.1428,-0.1467,-0.1473,-0.1478,0,0,0,0,0,-0.1255,-0.1252,-0.1262,-0.1263,-0.1271,-0.128,-0.1283,-0.13,-0.1314,-0.1326,-0.1343,-0.1342,-0.1384,-0.1369,-0.1372,-0.1402,-0.1423,-0.1426,-0.1428,-0.1465,-0.1472,-0.1478,0,0,0,0,0,0,-0.126,-0.1255,-0.1266,-0.1264,-0.128,-0.1286,-0.1297,-0.1312,-0.1335,-0.1346,-0.1351,-0.1355,-0.1391,-0.1389,-0.1373,-0.1429,-0.1406,-0.1409,-0.1433,-0.1439,-0.1444,-0.1437,-0.1364,0,0,0,0,0,-0.1262,-0.1257,-0.1265,-0.1269,-0.1276,-0.1293,-0.1304,-0.1319,-0.1334,-0.1346,-0.136,-0.1379,-0.14,-0.1414,-0.1427,-0.1452,-0.1426,-0.1476,-0.1482,-0.1486,-0.1483,-0.1463,-0.1466,-0.1438,-0.1438,-0.1438,0,0,-0.1269,-0.1264,-0.1265,-0.127,-0.1283,-0.1303,-0.1302,-0.1324,-0.1352,-0.1346,-0.1388,-0.1398,-0.1411,-0.1443,-0.146,-0.1448,-0.1481,-0.1489,-0.1493,-0.1487,-0.1466,-0.1468,-0.147,-0.144,-0.144,-0.144,0,0,-0.1274,-0.1274,-0.1275,-0.1289,-0.1309,-0.1319,-0.1332,-0.1352,-0.1374,-0.1409,-0.1417,-0.144,-0.1472,-0.1483,-0.1495,-0.1536,-0.151,-0.1552,-0.1574,-0.1555,-0.1557,-0.1558,-0.1527,-0.1525,-0.1555,-0.1555,-0.1555,0,-0.1288,-0.1286,-0.1281,-0.1293,-0.131,-0.1331,-0.1354,-0.1379,-0.141,-0.1423,-0.1431,-0.1476,-0.149,-0.1523,-0.1545,-0.1548,-0.1527,-0.1548,-0.156,-0.1561,-0.1561,-0.1529,-0.1526,-0.1557,-0.1557,-0.1557,-0.1557,0,-0.1293,-0.1307,-0.131,-0.133,-0.1349,-0.137,-0.14,-0.1428,-0.1457,-0.1474,-0.1514,-0.1528,-0.1548,-0.1568,-0.1574,-0.1594,-0.1574,-0.1567,-0.154,-0.1566,-0.1531,-0.1528,-0.1561,-0.156,-0.1559,-0.1558,0,0,-0.1283,-0.131,-0.1314,-0.1333,-0.1371,-0.1383,-0.1432,-0.1466,-0.1492,-0.1528,-0.1551,-0.1598,-0.1596,-0.1608,-0.1616,-0.1612,-0.1604,-0.1597,-0.1595,-0.1559,-0.1552,-0.144,-0.1425,-0.1597,-0.1597,-0.1597,-0.1525,0,-0.1295,-0.1318,-0.1332,-0.1375,-0.1391,-0.1426,-0.1462,-0.15,-0.1531,-0.1555,-0.1578,-0.1602,-0.1615,-0.1625,-0.1626,-0.1609,-0.1596,-0.1623,-0.1538,-0.1535,-0.1426,-0.1418,-0.1596,-0.1522,-0.1521,-0.1521,-0.152,0,-0.1292,-0.1307,-0.1345,-0.1387,-0.1398,-0.1432,-0.1479,-0.1516,-0.1557,-0.1576,-0.16,-0.1611,-0.1626,-0.1626,-0.1601,-0.1617,-0.1588,-0.157,-0.1567,-0.1443,-0.1416,-0.1491,-0.1513,-0.1513,-0.1514,-0.1514,-0.1515,0,-0.1264,-0.1313,-0.1341,-0.1359,-0.1413,-0.144,-0.1473,-0.1521,-0.1538,-0.1582,-0.1582,-0.1609,-0.1605,-0.159,-0.1565,-0.158,-0.1515,-0.1525,-0.1396,-0.1388,-0.1492,-0.1492,-0.1492,-0.1492,-0.1493,-0.1493,-0.1493,0,-0.1247,-0.1273,-0.1334,-0.1346,-0.1379,-0.1428,-0.1458,-0.1496,-0.1532,-0.1524,-0.1583,-0.1559,-0.1595,-0.1566,-0.155,-0.1447,-0.1497,-0.1384,-0.1356,-0.1512,-0.1515,-0.1489,-0.1489,-0.149,-0.1491,-0.1491,-0.1492,0,-0.1202,-0.1246,-0.1279,-0.1343,-0.1363,-0.1386,-0.1433,-0.1442,-0.1492,-0.1479,-0.1487,-0.1513,-0.1465,-0.1479,-0.1441,-0.1397,-0.1335,-0.1287,-0.1441,-0.1425,-0.1225,-0.1229,-0.1127,-0.1123,-0.1119,-0.1116,-0.1113,0,-0.1178,-0.1191,-0.126,-0.1272,-0.1302,-0.134,-0.135,-0.1411,-0.1407,-0.1418,-0.1389,-0.1374,-0.1373,-0.1226,-0.1265,-0.1213,-0.1205,-0.1171,-0.1213,-0.1202,-0.1186,-0.1196,-0.1205,-0.1106,-0.1105,-0.1104,-0.1103,0,-0.1126,-0.116,-0.1182,-0.1205,-0.1225,-0.123,-0.1251,-0.1231,-0.1269,-0.1332,-0.1241,-0.1204,-0.1144,-0.1125,-0.1095,-0.1064,-0.1196,-0.113,-0.1138,-0.1178,-0.1176,-0.1166,-0.1179,-0.109,-0.1092,-0.1093,-0.1094,0,-0.1086,-0.1085,-0.1113,-0.1117,-0.1135,-0.1092,-0.1121,-0.1092,-0.1091,-0.1119,-0.1077,-0.1067,-0.1106,-0.1042,-0.1009,-0.0976,-0.0967,-0.0947,-0.0966,-0.0981,-0.097,-0.0948,-0.075,0,0,0,0,0,-0.1041,-0.1016,-0.1017,-0.0999,-0.1005,-0.1006,-0.1033,-0.1062,-0.1098,-0.0999,-0.1035,-0.0972,-0.0907,-0.0916,-0.085,-0.0947,-0.0979,-0.0867,-0.0969,-0.1014,-0.103,-0.1032,0,0,0,0,0,0,-0.1005,-0.1006,-0.0984,-0.0885,-0.0849,-0.083,-0.0837,-0.0869,-0.0827,-0.0881,-0.0856,-0.0906,-0.0871,-0.0921,-0.0826,-0.0829,-0.087,-0.0885,-0.0881,-0.1005,-0.1019,-0.1032,-0.104,0,0,0,0,0]},{"header":{"parameterUnit":"m.s-1","parameterCategory":2,"la1":30.2991,"la2":30.254,"lo1":-89.0895,"lo2":-89.0444,"dy":0.0017,"dx":0.0017,"nx":28,"ny":28,"refTime":"2025-07-21T21:00:00:Z","depth":"4","parameterNumber":3,"parameterNumberName":"V-component_of_CURRENTS"},"data":[0,0,0,0,0,0,0,0,0,0,0,0,0,0,0,0,0,0,0,0,0,0,0,0,0,0,0,0,0,0,0,0,0,0,0,0,0,0,0,0,0,0,0,0,0,0,0,0,0,0,0,0,0,0,0,0,0,0,-0.0135,-0.0135,0,-0.0127,-0.0127,-0.0127,-0.0106,-0.0106,-0.0105,-0.0105,-0.0077,-0.0077,-0.0076,0,0,0,0,0,0,0,0,0,0,0,0,0,-0.0136,-0.0137,-0.0135,-0.0135,-0.0135,-0.0127,-0.0127,-0.0127,-0.0106,-0.0106,-0.0105,-0.0104,-0.0077,-0.0077,-0.0076,0,0,0,0,0,0,0,0,0,0,0,0,0,-0.0133,-0.0137,-0.0135,-0.0123,-0.0122,-0.0127,-0.0127,-0.0127,-0.0106,-0.0106,-0.0105,-0.0104,-0.0077,-0.0077,-0.0076,-0.0089,0,0,-0.0075,-0.0075,0,0,0,0,0,0,0,0,-0.0134,-0.0134,-0.0125,-0.0124,-0.0123,-0.0116,-0.0117,-0.0113,-0.0107,-0.0113,-0.0105,-0.0104,-0.0089,-0.0087,-0.0088,-0.0087,-0.0086,-0.0075,-0.0075,-0.0075,-0.0075,0,0,0,0,0,0,0,-0.0134,-0.0134,-0.0133,-0.0125,-0.0124,-0.0119,-0.0118,-0.0116,-0.0105,-0.0112,-0.0111,-0.0109,-0.0088,-0.0089,-0.0088,-0.0086,-0.0075,-0.0075,-0.0074,-0.0074,-0.0074,-0.0074,0,0,0,0,0,0,-0.0134,-0.0134,-0.0133,-0.0132,-0.0126,-0.012,-0.0119,-0.012,-0.0106,-0.0103,-0.011,-0.0108,-0.009,-0.0088,-0.0086,-0.0076,-0.0075,-0.0074,-0.0074,-0.0074,-0.0074,-0.0074,0,0,0,0,0,0,-0.0135,-0.0135,-0.0133,-0.0132,-0.0132,-0.0121,-0.0122,-0.012,-0.0118,-0.0104,-0.01,-0.0109,-0.0089,-0.0087,-0.0085,-0.0075,-0.0074,-0.0074,-0.0074,-0.0074,-0.0074,-0.007,0,0,0,0,0,0,-0.0135,-0.0135,-0.0136,-0.0133,-0.0132,-0.0137,-0.0123,-0.012,-0.0118,-0.0116,-0.0103,-0.0099,-0.0089,-0.0086,-0.0085,-0.0075,-0.0073,-0.0073,-0.0074,-0.0074,-0.007,-0.0071,-0.0071,0,0,0,0,0,-0.0135,-0.0141,-0.0136,-0.0136,-0.0134,-0.0137,-0.0137,-0.0126,-0.0119,-0.0121,-0.0112,-0.0099,-0.0088,-0.0086,-0.0085,-0.0074,-0.0073,-0.0074,-0.0074,-0.007,-0.0071,-0.0071,0,0,0,0,0,0,-0.0147,-0.0139,-0.0134,-0.0139,-0.0137,-0.0133,-0.0136,-0.0129,-0.0125,-0.0123,-0.0107,-0.0104,-0.0097,-0.0093,-0.0092,-0.0077,-0.0077,-0.0077,-0.0074,-0.0074,-0.0075,-0.0066,-0.0073,0,0,0,0,0,-0.015,-0.015,-0.0145,-0.015,-0.015,-0.0144,-0.0143,-0.0137,-0.0133,-0.013,-0.0122,-0.0112,-0.01,-0.0093,-0.0088,-0.0084,-0.0051,-0.0077,-0.0077,-0.0077,-0.007,-0.0009,-0.0002,-0.0076,-0.0076,-0.0076,0,0,-0.0157,-0.0153,-0.0153,-0.0152,-0.0151,-0.0152,-0.0142,-0.0145,-0.0141,-0.0129,-0.0125,-0.0116,-0.0101,-0.0093,-0.0089,-0.0086,-0.004,-0.0078,-0.0078,-0.0071,-0.0009,-0.0001,0.0006,-0.0077,-0.0077,-0.0077,0,0,-0.0172,-0.0168,-0.0172,-0.0169,-0.0166,-0.0163,-0.0164,-0.0161,-0.0154,-0.0154,-0.0137,-0.0119,-0.0118,-0.0092,-0.008,-0.0081,-0.0046,-0.0087,-0.0076,-0.0017,-0.0009,-0.0003,0.0049,0.006,-0.0083,-0.0083,-0.0083,0,-0.0183,-0.0185,-0.0176,-0.0178,-0.0177,-0.0167,-0.0173,-0.0166,-0.0161,-0.0152,-0.0154,-0.0122,-0.0111,-0.0075,-0.0075,-0.0078,-0.0045,-0.0073,-0.0014,-0.0007,0.0,0.0051,0.0064,-0.0083,-0.0083,-0.0083,-0.0083,0,-0.0194,-0.0199,-0.0204,-0.0199,-0.0197,-0.0204,-0.019,-0.0187,-0.018,-0.0165,-0.0139,-0.0118,-0.0094,-0.0086,-0.0082,-0.0029,-0.0022,-0.0022,-0.0008,0.0008,0.006,0.0073,-0.0083,-0.0083,-0.0083,-0.0083,0,0,-0.0219,-0.0214,-0.0216,-0.022,-0.0209,-0.0213,-0.0203,-0.019,-0.0179,-0.016,-0.0136,-0.0104,-0.0084,-0.007,-0.0051,0.0,0.0076,0.0007,0.001,0.0067,0.0206,0.0159,0.0169,0.0089,0.0091,0.0093,0.0222,0,-0.0237,-0.025,-0.0236,-0.0248,-0.0257,-0.0237,-0.023,-0.0211,-0.0192,-0.0167,-0.0117,-0.0093,-0.0079,-0.0066,-0.001,0.0052,0.011,0.0041,0.0173,0.0177,0.0142,0.0183,0.01,0.0232,0.0235,0.0238,0.0239,0,-0.025,-0.026,-0.0278,-0.0278,-0.0279,-0.0282,-0.0267,-0.0255,-0.0206,-0.0187,-0.0136,-0.01,-0.0021,-0.002,0.0124,0.0078,0.0141,0.0194,0.02,0.0166,0.0155,0.0212,0.0263,0.0262,0.026,0.0258,0.0257,0,-0.0276,-0.0287,-0.0306,-0.0306,-0.0303,-0.0308,-0.0303,-0.0267,-0.0256,-0.0195,-0.0174,-0.0078,-0.003,0.0072,0.0173,0.0156,0.0329,0.0321,0.0347,0.0345,0.0346,0.0338,0.0431,0.0431,0.043,0.043,0.043,0,-0.0296,-0.0312,-0.0327,-0.0337,-0.0365,-0.0342,-0.0351,-0.0329,-0.0289,-0.0271,-0.0188,-0.0148,-0.0004,0.0102,0.0191,0.031,0.0351,0.0364,0.0381,0.0342,0.0332,0.0356,0.0346,0.0435,0.0434,0.0433,0.0432,0,-0.032,-0.0326,-0.0355,-0.037,-0.0381,-0.0401,-0.0403,-0.04,-0.0351,-0.0323,-0.0302,-0.0178,-0.0036,0.0104,0.028,0.0327,0.0446,0.0475,0.0429,0.0439,0.0421,0.0409,0.053,0.053,0.0529,0.0529,0.0529,0,-0.0333,-0.0353,-0.0392,-0.0424,-0.044,-0.0465,-0.0482,-0.0447,-0.0438,-0.0348,-0.0334,-0.0188,-0.0099,0.0125,0.027,0.0459,0.0464,0.0522,0.047,0.043,0.0435,0.0423,0.0412,0.0528,0.0528,0.0528,0.0528,0,-0.0369,-0.0386,-0.0413,-0.0477,-0.0515,-0.0545,-0.0561,-0.0561,-0.0506,-0.0457,-0.0364,-0.0238,-0.0075,0.0105,0.0255,0.0381,0.0484,0.0519,0.052,0.0472,0.0429,0.0432,0.0421,0.0527,0.0527,0.0527,0.0527,0,-0.0402,-0.0434,-0.0475,-0.0529,-0.0578,-0.0613,-0.0614,-0.0595,-0.0573,-0.047,-0.0439,-0.0254,-0.0131,0.0066,0.0202,0.0328,0.0347,0.0355,0.0365,0.0368,0.0268,0.0187,0.024,0,0,0,0,0,-0.0433,-0.0473,-0.0526,-0.0583,-0.0626,-0.0651,-0.066,-0.0646,-0.0594,-0.0547,-0.0493,-0.0347,-0.0126,-0.0011,0.0106,0.0189,0.0366,0.0326,0.0379,0.052,0.0521,0.0425,0,0,0,0,0,0,-0.0459,-0.0511,-0.0533,-0.0612,-0.0656,-0.0701,-0.0708,-0.0675,-0.0638,-0.0567,-0.0441,-0.0355,-0.0126,-0.0197,0.0098,0.0142,0.018,0.0448,0.0449,0.0519,0.052,0.0522,0.0423,0,0,0,0,0]}]]